Flag for Australia Weather past 2 weeks in The Settlement, Christmas Island, Australia

Now
75 °F

Mostly cloudy.


Feels Like: 75 °F
Forecast: 74 / 80 °F
Wind: 15 mph from Southeast

Location: Christmas Island Aerodrome

Current Time: Sep 19, 2014 at 5:37:42 PM

Latest Report: Sep 19, 2014 at 5:00 PM


Visibility: N/A

Pressure: 29.92 "Hg

Humidity: 89%

Dew point: 72 °F

Location of The SettlementLocation

Historic Weather in The Settlement — Graph

°F

The Settlement temperature yesterday

Maximum temperature yesterday: 79 °F (at 11:00 AM)
Minimum temperature yesterday: 73 °F (at 12:00 AM)
Average temperature yesterday: 75 °F

Past Weeks' High & Low Weather Summary

 TemperatureHumidityPressure
High81 °F (Sep 9, 12:00 PM)94% (Sep 19, 2:00 AM)30.09 "Hg (Sep 19, 2:00 AM)
Low72 °F (Sep 5, 4:00 AM)58% (Sep 9, 12:00 PM)29.86 "Hg (Sep 5, 3:00 PM)
Average75 °F77%29.98 "Hg
* Reported Sep 4 4:00 PM — Sep 19 4:00 PM, The Settlement, Weather by CustomWeather, © 2014

Note: Actual official high and low records may vary slightly from our data, if they occured in-between our weather recording intervals... More about our weather records

Advertising

The Settlement weather history for previous 24 hours

 ConditionsComfort  
Time TempWeatherWind HumidityBarometerVisibility
4:00 PM
Sep 19
77 °FPartly sunny.16 mph83%29.89 "HgN/A
3:00 PM77 °FMostly cloudy.15 mph83%29.92 "HgN/A
2:00 PM77 °FPartly sunny.15 mph83%29.92 "HgN/A
1:00 PM77 °FMostly cloudy.16 mph83%29.95 "HgN/A
12:00 PM77 °FLow clouds.14 mph83%29.98 "HgN/A
11:00 AM75 °FLow clouds.13 mph89%30.01 "HgN/A
10:00 AM75 °FLow clouds.15 mph89%30.04 "HgN/A
9:00 AM75 °FLow clouds.17 mph89%30.01 "HgN/A
8:00 AM75 °FPartly sunny.15 mph89%30.01 "HgN/A
7:00 AM75 °FMostly cloudy.14 mph89%30.01 "HgN/A
6:00 AM73 °FMostly cloudy.13 mph94%29.98 "HgN/A
5:00 AM73 °FLow clouds.13 mph94%29.98 "HgN/A
4:00 AM75 °FMostly cloudy.13 mph89%29.95 "HgN/A
3:00 AM73 °FMostly cloudy.14 mph94%29.95 "HgN/A
2:00 AM73 °FMostly cloudy.14 mph94%29.95 "HgN/A
1:00 AM73 °FMostly cloudy.14 mph89%29.98 "HgN/A
12:00 AM75 °FLow clouds.15 mph89%29.98 "HgN/A
11:00 PM
Sep 18
75 °FMostly cloudy.15 mph89%30.01 "HgN/A
10:00 PM75 °FLow clouds.15 mph83%30.01 "HgN/A
9:00 PM75 °FMostly cloudy.14 mph89%30.01 "HgN/A
8:00 PM75 °FMostly cloudy.15 mph83%29.98 "HgN/A
7:00 PM75 °FMostly cloudy.15 mph83%29.98 "HgN/A
6:00 PM75 °FMostly cloudy.16 mph83%29.95 "HgN/A
5:00 PM75 °FMostly cloudy.16 mph83%29.92 "HgN/A
Weather by CustomWeather, © 2014

See weather overviewHow to use our weather pages